Location: Rounton
(54.4000°N, 1.3500°W)
Time: 21:59:39
(UTC+00:00)

Vanguard 1 - Pass Details

Date: 07 December 2021
Orbit: 652 x 3830 km, 34.2° (Epoch: 16 January)

Event Time Altitude Azimuth Distance (km) Brightness Sun altitude
Rises 06:20:19 0° 277° (W) 7,849 - -15.0°
Exits shadow 06:27:41 - 263° (W) 6,753 13.8 -13.9°
Reaches altitude 10° 06:30:44 10° 255° (WSW) 6,340 13.7 -13.5°
Maximum altitude 06:37:19 13° 235° (SW) 5,631 13.6 -12.6°
Drops below altitude 10° 06:43:03 10° 214° (SW) 5,351 13.7 -11.9°
Sets 06:50:01 0° 189° (S) 5,616 14.1 -10.9°
